Du Bois, PA

11:41 PM EDT on May 25, 2017 (GMT -0400)
Du Bois-Jefferson County

Weather History for KDUJ - January, 2014

Change the Weather History Date:

Wednesday, January 22, 2014

  Actual Average Record
Temperature  
Mean Temperature 2 °F 23 °F  
Max Temperature 9 °F 31 °F 61 °F (2017)
Min Temperature -6 °F 16 °F -11 °F (1984)
Degree Days  
Heating Degree Days 63 42  
Month to date heating degree days 945 914  
Since 1 July heating degree days 3432 3576  
Cooling Degree Days 0 0  
Month to date cooling degree days 0 0  
Year to date cooling degree days 0 0  
Moisture  
Dew Point -7 °F    
Average Humidity 67    
Maximum Humidity 83    
Minimum Humidity 50    
Precipitation  
Precipitation 0.00 in 0.09 in 0.89 in (1966)
Month to date precipitation 1.72 2.25  
Sea Level Pressure  
Sea Level Pressure 30.00 in    
Wind  
Wind Speed 7 mph (WNW)    
Max Wind Speed 14 mph    
Max Gust Speed 17 mph    
Visibility 9 miles    
Events      
T = Trace of Precipitation, MM = Missing Value Source: NWS Daily Summary

Daily Weather History Graph

Daily Weather History Graph

Search for Another Location

Airport or City:

Trip Planner

Search our weather history database for the weather conditions in past years. The results will help you decide how hot, cold, wet, or windy it might be!

Date:

Astronomy

Jan. 22, 2014 Rise Set
Actual Time 7:34 AM EST 5:19 PM EST
Civil Twilight 7:05 AM EST 5:49 PM EST
Nautical Twilight 6:31 AM EST 6:23 PM EST
Astronomical Twilight 5:58 AM EST 6:56 PM EST
Moon 11:54 PM EST (1/22) 10:31 AM EST (1/22)
Length of Visible Light 10h 44m
Length of Day
9h 45m
Waning Gibbous, 65% of the Moon is Illuminated
Jan 22
Waning Gibbous
Jan 24
Last Quarter
Jan 30
New
Feb 6
First Quarter
Feb 14
Full

Hourly Weather History & Observations

Time (EST) Temp. Windchill Dew Point Humidity Pressure Visibility Wind Dir Wind Speed Gust Speed Precip Events Conditions
12:56 AM -2.0 °F -16.6 °F -11.0 °F 66% 30.02 in 10.0 mi North 8.1 mph - N/A   Clear
1:56 AM -2.9 °F -15.0 °F -11.0 °F 68% 30.01 in 10.0 mi North 5.8 mph - N/A   Clear
2:56 AM -4.0 °F -16.3 °F -11.0 °F 72% 30.03 in 10.0 mi NNW 5.8 mph - N/A   Partly Cloudy
3:56 AM -5.1 °F -17.6 °F -11.9 °F 72% 30.01 in 10.0 mi NW 5.8 mph - N/A   Clear
4:56 AM -5.1 °F -19.1 °F -11.9 °F 72% 30.02 in 10.0 mi NW 6.9 mph - N/A   Clear
5:56 AM -5.1 °F -19.1 °F -11.9 °F 72% 30.02 in 10.0 mi NW 6.9 mph - N/A   Clear
6:56 AM -4.0 °F -19.0 °F -11.0 °F 72% 30.03 in 10.0 mi NW 8.1 mph - N/A   Partly Cloudy
7:56 AM -5.1 °F -13.6 °F -11.0 °F 76% 30.04 in 10.0 mi WNW 3.5 mph - N/A   Clear
8:24 AM -4.0 °F -14.6 °F -9.4 °F 78% 29.90 in 10.0 mi WNW 4.6 mph - N/A   Mostly Cloudy
8:45 AM -4.0 °F -14.6 °F -9.4 °F 78% 29.90 in 10.0 mi WNW 4.6 mph - N/A   Scattered Clouds
8:56 AM -4.0 °F - -9.9 °F 76% 30.05 in 10.0 mi Calm Calm - N/A   Clear
9:56 AM -0.9 °F -12.7 °F -8.0 °F 72% 30.05 in 10.0 mi West 5.8 mph - N/A   Scattered Clouds
10:56 AM 3.0 °F -11.5 °F -7.1 °F 63% 30.04 in 10.0 mi NW 9.2 mph - N/A   Clear
11:56 AM 5.0 °F -11.6 °F -7.1 °F 58% 30.02 in 10.0 mi West 12.7 mph - N/A   Clear
12:56 PM 6.1 °F -8.7 °F -6.0 °F 58% 30.00 in 10.0 mi West 10.4 mph - N/A   Clear
1:56 PM 8.1 °F -3.2 °F -7.1 °F 50% 29.98 in 10.0 mi WNW 6.9 mph - N/A   Clear
2:56 PM 8.1 °F -4.3 °F -7.1 °F 50% 29.98 in 10.0 mi WSW 8.1 mph - N/A   Clear
3:56 PM 9.0 °F -5.9 °F -8.0 °F 46% 29.99 in 10.0 mi West 11.5 mph - N/A   Clear
4:56 PM 8.1 °F -8.4 °F -7.1 °F 50% 30.01 in 10.0 mi West 13.8 mph - N/A   Mostly Cloudy
5:56 PM 6.1 °F -6.8 °F -6.0 °F 58% 30.02 in 10.0 mi WSW 8.1 mph - N/A   Clear
6:56 PM 3.9 °F -8.2 °F -7.1 °F 60% 30.04 in 10.0 mi WSW 6.9 mph - N/A   Partly Cloudy
7:56 PM 5.0 °F -6.9 °F -5.1 °F 63% 30.04 in 10.0 mi WSW 6.9 mph - N/A   Overcast
8:56 PM 3.9 °F - -4.0 °F 70% 30.04 in 5.0 mi Calm Calm - N/A   Haze
9:45 PM 5.0 °F -4.1 °F -2.2 °F 72% 29.90 in 2.5 mi SW 4.6 mph - N/A   Haze
9:52 PM 5.0 °F -4.1 °F -0.4 °F 78% 29.90 in 2.5 mi SW 4.6 mph - N/A   Haze
9:56 PM 5.0 °F -4.1 °F -0.9 °F 76% 30.04 in 2.5 mi SW 4.6 mph - N/A   Haze
10:52 PM 5.0 °F - -0.4 °F 78% 29.90 in 4.0 mi Calm Calm - N/A   Haze
10:56 PM 5.0 °F - -0.9 °F 76% 30.02 in 6.0 mi Calm Calm - N/A   Haze
11:06 PM 3.2 °F - -2.2 °F 78% 29.90 in 10.0 mi Calm Calm - N/A   Overcast
11:56 PM 3.9 °F - -2.0 °F 76% 30.02 in 5.0 mi Calm Calm - N/A   Haze